Regional Weather Roundup
Issued by NWS Goodland, KS

Home | Current Version | Previous Version | Graphics & Text | Print | Product List | Glossary On
Versions: 1 2 3 4 5 6 7 8 9 10 11 12 13 14 15 16 17 18 19 20 21 22 23 24 25 26 27 28 29 30 31 32 33 34 35 36 37 38 39 40 41 42 43 44 45 46 47 48 49 50
000
ASUS43 KGLD 301708
RWRGLD

GOODLAND FORECAST AREA HOURLY WEATHER ROUNDUP
NATIONAL WEATHER SERVICE GOODLAND KS
1100 AM MDT SUN AUG 30 2015

...OFFICIAL OBSERVATIONS...

CITY           SKY/WX    TMP DP  RH WIND       PRES   REMARKS
GOODLAND KS    SUNNY     84  47  27 S21G29    30.07F
HILL CITY KS   SUNNY     85  60  42 E7        30.05S
IMPERIAL NEB   SUNNY     86  48  26 S17       30.03F
MCCOOK NEB     SUNNY     89  48  24 S15       30.02S
AKRON CO       SUNNY     87  48  25 SW16      30.08S
BURLINGTON CO  SUNNY     83  50  31 S16G25    30.11S
LIMON CO       SUNNY     80  50  34 SE13      30.16S
$$

...UNOFFICIAL OBSERVATIONS...

CITY           SKY/WX    TMP DP  RH WIND       PRES   REMARKS
COLBY KS       SUNNY     88  48  25 S16       30.07F
GOVE KS          N/A     85  32  15 MISG        N/A
LENORA KS        N/A     84  32  15 MISG        N/A
NORTON KS      SUNNY     81  50  34 SE9       30.03F
SHARON SPRINGS   N/A     86  51  29 S20         N/A
TRENTON NEB      N/A     88  32  13 S15         N/A
YUMA CO          N/A     86  50  28 S18G28      N/A
$$



USA.gov is the U.S. government's official web portal to all federal, state and local government web resources and services.